This demonstration page uses our WeatherBlox Daily Observations layout. Learn more.

Left ArrowRight Arrow

Hourly Observations for March 29, 2019

Temp ( °F °C ) Dew Point ( °F °C ) Humidity (%) Winds ( mph kmh ) Pressure ( in mb ) Visibility ( mi km ) Precip ( " mm )
12:52 am 00:52 Cloudy 47 8.3 33 0.6 59 59 NNE 10 17 30.16 1021 10 16 0.00 0.00
1:52 am 01:52 Cloudy 46 7.8 35 1.7 66 66 N 12 19 30.16 1022 10 16 0.00 0.00
2:52 am 02:52 Cloudy 45 7.2 34 1.1 66 66 NNE 14 22 30.16 1021 10 16 0.00 0.00
3:52 am 03:52 Cloudy 43 6.1 32 0 65 65 NNE 15 24 30.15 1021 10 16 0.00 0.00
4:52 am 04:52 Cloudy 42 5.6 31 -0.6 65 65 N 17 28 30.15 1021 10 16 0.00 0.00
5:52 am 05:52 Cloudy 41 5 31 -0.6 67 67 N 14 22 30.16 1021 10 16 0.00 0.00
6:52 am 06:52 Cloudy 40 4.4 29 -1.7 65 65 NNE 13 20 30.17 1022 10 16 0.00 0.00
7:52 am 07:52 Mostly Cloudy 39 3.9 29 -1.7 67 67 N 14 22 30.14 1021 10 16 0.00 0.00
8:52 am 08:52 Cloudy 39 3.9 27 -2.8 62 62 NNE 8 13 30.14 1021 10 16 0.00 0.00
9:52 am 09:52 Cloudy 42 5.6 28 -2.2 58 58 NNE 9 15 30.11 1020 10 16 0.00 0.00
10:52 am 10:52 Cloudy 43 6.1 30 -1.1 60 60 N 18 30 30.08 1019 10 16 0.00 0.00
11:52 am 11:52 Cloudy 43 6.1 30 -1.1 60 60 NNE 15 24 30.08 1019 10 16 0.00 0.00
12:52 pm 12:52 Cloudy with Light Rain 41 5 32 0 70 70 N 12 19 30.12 1020 5 8 0.02 0.51
1:52 pm 13:52 Cloudy with Light Rain 39 3.9 33 0.6 79 79 WNW 3 6 30.15 1021 10 16 0.04 1.02
2:11 pm 14:11 Cloudy with Light Rain/Snow 38 3.3 32 0 79 79 NNE 8 13 30.13 1020 3 4 0.03 0.76
2:20 pm 14:20 Cloudy with Light Rain/Snow 38 3.3 32 0 79 79 NE 12 19 30.12 1020 4 6 0.05 1.27
2:52 pm 14:52 Cloudy with Light Rain 39 3.9 33 0.6 79 79 NNE 10 17 30.07 1018 10 16 0.05 1.27
3:52 pm 15:52 Cloudy with Light Rain 39 3.9 34 1.1 82 82 N 15 24 30.03 1017 10 16 0.02 0.51
4:52 pm 16:52 Cloudy 40 4.4 35 1.7 83 83 N 13 20 30.02 1017 10 16 0.01 0.25
5:30 pm 17:30 Cloudy with Light Rain 38 3.3 34 1.1 86 86 NNE 15 24 30.04 1017 10 16 0.00 0.03
5:52 pm 17:52 Cloudy 39 3.9 34 1.1 82 82 NNE 16 26 30.01 1016 10 16 0.01 0.25
6:52 pm 18:52 Cloudy 39 3.9 34 1.1 82 82 NNE 10 17 30.03 1017 10 16 0.00 0.00
7:52 pm 19:52 Cloudy 39 3.9 34 1.1 82 82 N 12 19 30.04 1017 10 16 0.00 0.00
8:52 pm 20:52 Cloudy 39 3.9 33 0.6 79 79 NNE 18 30 30.04 1017 10 16 0.00 0.03
9:52 pm 21:52 Cloudy 39 3.9 32 0 76 76 NNE 7 11 30.06 1018 10 16 0.00 0.00
10:52 pm 22:52 Cloudy 38 3.3 32 0 79 79 N 9 15 30.07 1018 10 16 0.00 0.00
11:52 pm 23:52 Cloudy 40 4.4 29 -1.7 65 65 NNW 13 20 30.06 1018 10 16 0.00 0.00

Powered by AerisWeather